Powrót do katalogu

STARLINK-31737

AktywnyŁącznośćVLEO
NORAD 59537·PAYLOAD·🇺🇸 United States

Wystrzelony Apr 18, 2024 z Cape Canaveral Space Force Station

Loading…

Następne Przeloty (najbliższe 24 godziny)

TLE

ŚwieżeSource: CelesTrak SupGP

Epoka: Sep 14, 2026, 20:39 UTC

1 59537C 24074D   26257.86090278  .00017326  00000+0  62746-3 0  2571
2 59537  43.0032 355.1154 0001459 277.5126 183.4281 15.27574228    17

Śledź STARLINK-31737 w czasie rzeczywistym z AllMySat

Download on the App Store